Regional Weather Roundup
Issued by NWS Charleston, SC

Current Version | Previous Version | Graphics & Text | Print | Product List | Glossary On
Versions: 1 2 3 4 5 6 7 8 9 10 11 12 13 14 15 16 17 18 19 20 21 22 23 24 25 26 27 28 29 30 31 32 33 34 35 36 37 38 39 40 41 42 43 44 45 46 47 48 49 50
201 ASUS42 KCHS 130011 RWRCHS REGIONAL WEATHER ROUNDUP NATIONAL WEATHER SERVICE CHARLESTON SC 700 PM EST TUE DEC 12 2017 NOTE: "FAIR" INDICATES FEW OR NO CLOUDS BELOW 12,000 FEET WITH NO SIGNIFICANT WEATHER AND/OR OBSTRUCTIONS TO VISIBILITY. NOT ALL STATIONS ARE QUALITY CONTROLLED. USE DATA WITH CAUTION... ESPECIALLY DEWPOINT OBSERVATIONS. SCZ027-030-031-034>040-042>050-130100- ...SOUTHEAST SOUTH CAROLINA... CITY SKY/WX TMP DP RH WIND PRES REMARKS N CHARLESTON CLEAR 53 32 44 W14 29.78R 6HR MIN TEMP: 53; 6HR MAX TEMP: 63; WATERFRONT PRK N/A 55 35 47 W7 29.63R JOHNS ISLAND FAIR 54 36 50 W12G17 29.79R PINOPOLIS N/A 54 39 58 W14 29.69R MONCKS CORNER FAIR 50 30 46 W6 29.78R SUMMERVILLE FAIR 52 30 43 W9G17 29.81R BEAUFORT MCAS CLEAR 52 33 48 W14G22 29.84R 6HR MIN TEMP: 52; 6HR MAX TEMP: 63; BEAUFORT ARPT FAIR 52 32 46 NW16G26 29.84R HILTON HEAD IS CLEAR 54 32 43 W16 29.85F WALTERBORO CLEAR 50 32 50 W18G25 29.83R ALLENDALE FAIR 50 30 46 VRB6G14 29.84R ...SOUTHERN MIDLANDS AND PEE DEE... CITY SKY/WX TMP DP RH WIND PRES REMARKS GEORGETOWN FAIR 43 36 75 SW6 29.75R KINGSTREE FAIR 48 32 53 W9 29.75R ORANGEBURG CLEAR 50 28 42 W10 29.80R 6HR MIN TEMP: 50; 6HR MAX TEMP: 61; BARNWELL N/A 50 32 50 W10 29.85R AIKEN FAIR 45 30 57 W13G20 29.87R MANNING FAIR 52 32 46 MISG 29.77R COLUMBIA CLEAR 49 29 46 W16G28 29.80R 6HR MIN TEMP: 49; 6HR MAX TEMP: 61; SUMTER CLEAR 51 28 41 W15G23 29.74R 6HR MIN TEMP: 51; 6HR MAX TEMP: 61; FLORENCE PTCLDY 47 30 51 W5 29.73R 6HR MIN TEMP: 47; 6HR MAX TEMP: 60; MYRTLE BEACH CLEAR 51 36 56 W9 29.73R N MYRTLE BEACH CLEAR 51 36 56 W7 29.70R 6HR MIN TEMP: 51; 6HR MAX TEMP: 63; $$ GAZ063-065-086>088-099>101-113>116-118-119-134>141-150-130100- ...SOUTHEAST GEORGIA... CITY SKY/WX TMP DP RH WIND PRES REMARKS SAVANNAH ARPT CLEAR 52 33 48 W12 29.87R 6HR MIN TEMP: 52; 6HR MAX TEMP: 64; HUNTER AAF CLEAR 52 33 47 W14 29.84R 6HR MIN TEMP: 51; 6HR MAX TEMP: 64; FORT STEWART CLEAR 51 33 50 W7 29.87R 6HR MIN TEMP: 51; 6HR MAX TEMP: 63; STATESBORO CLEAR 50 29 44 NW16 29.89R SYLVANIA CLEAR 49 35 59 NW9 29.88R CLAXTON FAIR 52 34 51 W10 29.90R ...CSRA...CENTRAL AND FAR SOUTHEAST GEORGIA... CITY SKY/WX TMP DP RH WIND PRES REMARKS THOMSON CLEAR 44 28 53 NW10 29.94R AUGUSTA-BUSH CLEAR 47 29 49 W16 29.88R 6HR MIN TEMP: 47; 6HR MAX TEMP: 61; AUGUSTA-DANIEL CLEAR 48 27 44 W9G21 29.88R SWAINSBORO FAIR 46 32 57 NW9 29.93R VIDALIA CLEAR 50 34 53 NW10G16 29.92R EASTMAN FAIR 49 22 33 NW5 29.98R HAZLEHURST FAIR 52 19 27 W6 29.93R ALMA CLEAR 52 34 50 NW8 29.93R 6HR MIN TEMP: 52; 6HR MAX TEMP: 62; WAYCROSS CLEAR 52 30 43 NW7 29.93R JESUP NOT AVBL BAXLEY FAIR 50 32 50 NW8 29.93R BRUNSWICK CLEAR 54 32 43 W8 29.91R SAINT SIMONS CLEAR 55 36 48 W7 29.90R 6HR MIN TEMP: 54; 6HR MAX TEMP: 68; $$ SCZ027-028-034-036>038-045-046-048>050-GAZ119-141-130100- ...LAKE AND SUPPLEMENTAL COASTAL OBSERVATIONS... STATION/POSITION TIME TEMP WIND PRES WAVE SWELL AIR SEA DIR/SP/G HT/PER HT/PER/DIR (UTC) (F) (DEG/KT/KT) (MB) (FT/S) (FT/S/D) WINYAH BAY NOT AVBL LAKE MURRAY 2320 51 270/ 17/ 23 1007.8R ACE BASIN NERRS 2245 55 270/ 5 1009.0 FORT PULASKI 2348 55 55 290/ 14/ 16 1011.0R SAPELO ISLAND NOT AVBL $$ ANZ835-935-AMZ111-154-330-350-352-354-370-450-454-472-130100- ...C-MAN AND BUOY OBSERVATIONS... STATION/POSITION TIME TEMP WIND PRES WAVE SWELL AIR SEA DIR/SP/G HT/PER HT/PER/DIR (UTC) (F) (DEG/KT/KT) (MB) (FT/S) (FT/S/D) BUOY 41004 2350 61 75 280/ 27/ 35 1007.3R 8/ 8 5/200/ 8 BUOY 41008 2350 58 62 270/ 19/ 23 1011.0R 4/ 4 FOLLY BEACH CMAN 2300 54 260/ 5/ 7 1008.5R CAPERS NEARSHORE 2308 54 58 290/ 14/ 21 1007.3R FRIPP NEARSHORE 2308 54 57 270/ 27/ 37 1007.8F STATION/POSITION TIME TEMP WIND PRES WAVE SWELL AIR SEA DIR/SP/G HT/PER HT/PER/DIR (UTC) (F) (DEG/KT/KT) (MB) (FT/S) (FT/S/D) 5E ST. MARYS GA 2330 62 N/A 3/ 4 FRYING PAN BUOY 2350 59 65 290/ 23/ 29 1004.7R 8/ 8 5/210/ 8 BUOY 41025 2350 56 72 310/ 27/ 35 1000.4R 9/ 8 7/190/ 8 CAPE LOOKOUT NC 2300 300/ 19/ 23 1001.9R BUOY 41002 2250 71 75 220/ 29/ 37 1003.9 10/ 7 2/ 40/16 BUOY 41010 NOT AVBL ST AUGUSTINE FL 0000 60 62 310/ 9/ 13 1013.2R $$

USA.gov is the U.S. government's official web portal to all federal, state and local government web resources and services.